www.pogodaiklimat.ru

Погода и климат >> Архив погоды >> Саудовская Аравия >> Al-Jouf


ПОГОДА в Al-Jouf

  • Прогноз погоды в Al-Jouf
  • Монитор погоды в Al-Jouf
  • Климат города

АРХИВ ПОГОДЫ в Al-Jouf

Время (UTC), дата Ветер
(напр.,м/с)
 
Видим.   Явления Облачность Т
(С)
Тd
(С)
f
(%)
Тe
(С)
Тes
(С)
Комфортность P
(гПа)
Po
(гПа)
Тmin
(С)
Tmax
(С)
R
(мм)
R24
(мм)
S
(см)
03 13.07 СЗ 4 10 км ясно +27.9 +7.0 27 +27 +27 жарко 1000.0 929.1
06 13.07 СЗ 6 10 км ясно +30.5 +7.0 23 +29 +34 жарко 1001.3 930.0 +27.9
09 13.07 З 6 10 км ясно +36.5 +2.0 12 +33 +43 жарко 1000.3 929.5
12 13.07 З 3 10 км ясно +39.1 +3.0 11 +36 +48 очень
жарко
998.8 928.0
15 13.07 З 7 10 км ясно +37.8 +2.0 11 +34 +35 очень
жарко
998.4 927.3
18 13.07 СЗ 3 10 км ясно +33.8 +1.0 12 +30 +30 жарко 999.1 928.0 +39.1
21 13.07 С 3 10 км ясно +30.6 0.0 14 +28 +28 жарко 998.2 927.4
00 14.07 СЗ 5 10 км ясно +28.2 +3.0 20 +26 +26 жарко 997.5 926.6
03 14.07 З 4 10 км ясно +25.5 +11.0 40 +27 +27 жарко 999.8 928.2
06 14.07 З 5 10 км ясно +28.6 +14.0 41 +31 +37 жарко 1001.0 929.2 +25.5
09 14.07 З 7 10 км ясно +34.3 +11.0 24 +34 +41 очень
жарко
1000.0 928.6
12 14.07 З 8 10 км ясно +37.6 +4.0 13 +35 +38 очень
жарко
998.3 927.1
15 14.07 З 8 10 км ясно +37.3 +4.0 13 +34 +35 очень
жарко
997.7 926.4
18 14.07 СЗ 3 10 км ясно +33.5 +5.0 17 +31 +31 жарко 998.4 927.1 +38.2
21 14.07 Ю 2 10 км ясно +29.1 +5.0 22 +28 +28 жарко 998.0 926.9
00 15.07 СЗ 4 10 км ясно +29.2 +9.0 28 +29 +29 жарко 997.5 926.7
03 15.07 СЗ 5 10 км ясно +27.9 +11.0 35 +29 +29 жарко 998.9 927.6
06 15.07 СЗ 6 10 км ясно +31.5 +12.0 30 +32 +36 жарко 999.9 928.5 +27.9
09 15.07 СЗ 4 10 км ясно +37.1 +5.0 14 +34 +49 очень
жарко
999.4 928.2
12 15.07 З 8 10 км ясно +38.3 +4.0 12 +35 +38 очень
жарко
998.0 927.1
15 15.07 СЗ 5 10 км ясно +37.3 +3.0 12 +34 +35 очень
жарко
998.5 927.4
18 15.07 З 1 10 км ясно +33.5 +3.0 15 +31 +31 жарко 999.6 928.3 +38.7
21 15.07 ЮВ 2 10 км ясно +29.3 +2.0 17 +27 +27 жарко 998.9 927.9
00 16.07 З 3 10 км ясно +28.2 +3.0 20 +26 +26 жарко 999.1 928.1
03 16.07 СЗ 4 10 км ясно +27.0 +7.0 28 +27 +27 жарко 1000.6 929.1
06 16.07 С 4 10 км ясно +31.7 +10.0 26 +31 +39 жарко 1001.5 930.1 +27.0
09 16.07 СЗ 4 10 км ясно +36.6 +6.0 15 +34 +50 очень
жарко
1000.8 929.5
12 16.07 З 8 10 км ясно +39.4 +4.0 11 +36 +38 очень
жарко
999.7 928.6
15 16.07 З 9 10 км ясно +37.1 +4.0 13 +34 +34 очень
жарко
999.9 928.7
18 16.07 З 3 10 км ясно +33.1 +3.0 15 +30 +30 жарко 1000.5 929.4 +39.4
21 16.07 штиль 0 10 км ясно +29.8 +4.0 19 +28 +28 жарко 1000.3 929.3
00 17.07 СЗ 5 10 км ясно +28.8 +4.0 21 +27 +27 жарко 1000.2 929.2
03 17.07 СЗ 5 10 км ясно +27.7 +9.0 31 +28 +28 жарко 1001.2 929.7
06 17.07 С 5 10 км ясно +31.6 +6.0 20 +30 +35 жарко 1002.2 930.6 +27.7
09 17.07 СЗ 7 10 км ясно +36.4 +5.0 14 +34 +39 очень
жарко
1001.5 930.4
12 17.07 СЗ 7 10 км ясно +38.6 +1.0 10 +35 +39 очень
жарко
999.8 928.8
15 17.07 СЗ 9 10 км ясно +36.9 +1.0 11 +33 +34 жарко 999.9 928.6
18 17.07 З 4 10 км ясно +33.2 0.0 12 +30 +30 жарко 1000.3 929.2 +38.6
21 17.07 СЗ 6 10 км ясно +31.0 0.0 14 +28 +28 жарко 1000.2 929.3
00 18.07 СЗ 7 10 км ясно +29.3 +9.0 28 +29 +29 жарко 1000.0 929.0
03 18.07 С 4 10 км ясно +27.5 +10.0 33 +28 +28 жарко 1001.5 929.9
06 18.07 С 4 10 км ясно +31.0 +8.0 24 +30 +38 жарко 1002.5 930.8 +27.5
09 18.07 З 7 10 км ясно +37.5 +4.0 13 +35 +41 очень
жарко
1001.2 930.1
12 18.07 З 9 10 км ясно +38.7 +1.0 10 +35 +36 очень
жарко
999.9 928.9
15 18.07 З 9 10 км ясно +37.1 0.0 10 +33 +34 жарко 999.7 928.5
18 18.07 З 5 10 км ясно +33.6 -1.0 11 +30 +30 жарко 1000.4 929.3 +38.8
21 18.07 З 4 10 км ясно +29.5 -2.0 13 +26 +26 жарко 1000.2 929.2
00 19.07 СЗ 6 10 км ясно +29.3 +8.0 26 +29 +29 жарко 1000.2 929.2
03 19.07 З 5 10 км ясно +26.2 +8.0 32 +26 +26 жарко 1002.1 930.4
06 19.07 З 5 10 км ясно +30.3 +7.0 23 +29 +35 жарко 1003.5 931.7 +26.2
09 19.07 З 8 10 км ясно +36.8 +5.0 14 +34 +38 очень
жарко
1002.5 931.1
12 19.07 З 10 10 км ясно +39.8 -1.0 8 +36 +36 очень
жарко
1000.9 929.8
15 19.07 СЗ 9 10 км ясно +38.4 -3.0 7 +34 +34 очень
жарко
1001.0 929.7
18 19.07 З 3 10 км ясно +33.2 -1.0 11 +30 +30 жарко 1001.3 930.1 +40.0
21 19.07 С 3 10 км ясно +31.4 -3.0 11 +28 +28 жарко 1000.7 929.9

 

Местоположение метеостанции Al-Jouf (Саудовская Аравия): широта 29.78 долгота 40.10 высота над уровнем моря 689 м.

В архиве по умолчанию представлена погода в Al-Jouf за последнюю неделю. Архивные данные за месяц целиком и за предыдущие месяцы, начиная с января 2011 года, Вы можете получить, выбрав интересующий диапазон дат из раскрывающегося списка и нажав кнопку "Ввод!".


*Определитесь, кто Вы:
робот инопланетянин человек

Внимание! Время в таблицах - всемирное. Для получения местного времени необходимо прибавить поправку, которая в Al-Jouf равна 3 ч.

Смотрите также архив погоды в соседних городах и на ближайших метеорологических станциях:

Погода в Arar (Саудовская Аравия) (159 км)
Погода в Turaif (Саудовская Аравия) (249 км)
Погода в Hail (Саудовская Аравия) (304 км)
Погода в Al-Nukhib (Ирак) (324 км)
Погода в Gurayat (Саудовская Аравия) (325 км)
Погода в Rafha (Саудовская Аравия) (327 км)
Погода в Ruwaished (Иордания) (352 км)
Погода в Rutbah (Ирак) (362 км)
Погода в Tabuk (Саудовская Аравия) (374 км)
Погода в Safawi (Иордания) (391 км)

Пояснения к столбцам:

Ветер - указаны скорость ветра в м/с - средняя за 10 мин, порывы в срок и между сроками (в фигурных скобках) и направление, откуда дует ветер: С - северный, СВ - северо-восточный, В - восточный, ЮВ - юго-восточный, Ю - южный, ЮЗ - юго-западный, З - западный, СЗ - северо-западный.
Видимость - горизонтальная дальность видимости в метрах или километрах. При видимости от 1 до 10 км при отсутствии осадков обычно наблюдается дымка, при ухудшении видимости до 1 км и менее - туман. В сухую погоду видимость может ухудшаться дымом, пылью или мглою.
Явления - указаны атмосферные явления, наблюдавшиеся в срок или в последний час перед сроком; фигурными скобками обозначены явления, наблюдавшиеся между сроками (за 1-3 часа до срока); квадратными скобками обозначены град или гололедные отложения с указанием их диаметра в мм.
Облачность - указаны через наклонную черту общая и нижняя облачность в баллах и высота нижней границы облаков в метрах; квадратными скобками обозначены формы облаков: Ci - перистые, Cs - перисто-слоистые, Cc - перисто-кучевые, Ac - высококучевые, As - высокослоистые, Sc - слоисто-кучевые, Ns - слоисто-дождевые, Cu - кучевые, Cb - кучево-дождевые. Подробнее классификацию облаков см. в Атласе облаков (PDF).
T - Температура воздуха - температура, измеренная на высоте 2 м над землей.
Td - Температура точки росы - температура, при понижении до которой содержащийся в воздухе водяной пар достигнет насыщения.
f - Относительная влажность воздуха - влажноcть воздуха, измеренная на высоте 2 м над землей.
Te - Эффективная температура - температура, которую ощущает одетый по сезону человек в тени. Характеристика душности погоды. При расчете учитывается влияние влажности воздуха и скорости ветра на теплоощущения человека.
Tes - Эффективная температура на солнце - температура, которую ощущает человек, с поправкой на солнечный нагрев. Характеристика знойности погоды. Зависит от высоты солнца над горизонтом, облачности и скорости ветра. Ночью, в пасмурную погоду, а также при ветре 12 м/с и более поправка равна нулю.
P - Атмосферное давление - приведенное к уровню моря атмосферное давление.
Po - Атмосферное давление - измеренное на уровне метеостанции атмосферное давление.
Tmin - Минимальная температура - минимум температуры воздуха на высоте 2 м над землей.
Tmax - Максимальная температура - максимум температуры воздуха на высоте 2 м над землей.
R - Количество осадков - Количество выпавших осадков за период времени, мм. При наведении курсора мыши на число - период времени, за который выпало указанное количество осадков.
R24 - Количество осадков - Количество выпавших осадков за 24 часа, мм.
S - Снежный покров - Высота снежного покрова, см. При наведении курсора мыши на число - состояние снежного покрова и степень покрытия местности в баллах.